铱星星座 135星 (IRIDIUM 135)

导读

IRIDIUM 135是美国铱星通信公司运营的通信卫星,于北京时间2017年12月23日08时发射。该卫星属于铱星星座系统,采用三轴稳定模式,运行在近地极地轨道,倾角约86.4度,周期约100分钟,可支持全球范围内的语音和数据通信服务,目前该卫星已退役,为全球移动通信网络提供过稳定天基支撑。

基本信息
目录编号:
43070
目录名称:
IRIDIUM 135
国际标识:
2017-083A
轨道中心:
EARTH
卫星名称:
铱星星座 135星
卫星全名:
铱星星座 135星 (IRIDIUM 135)
卫星状态:
在轨 (已飞行3185 天)
发射日期:
2017-12-23 UTC
国别 :
美国 (US)
星等 :
--
该卫星已列入 空间交会检测服务 Space Conjunction Data Service (SCDS) ,当前飞行风险评估等级: 高风险
轨道信息
数据来源 国际轨道数据 AOE轨道数据
星历时间 2026-09-11T22:16:27+0800
17小时前
查看轨道信息
2026-09-10T23:00:00+0800
1天前
查看轨道信息
半长轴 7155.805km 7155.817km
偏心率 0.0002219 0.0000976
轨道倾角 86.392° 86.394°
近地点辐角 90.965° 52.725°
升交点赤经 285.894° 286.298°
平近点角 269.180° 343.515°
近地点 776.08km 776.981km
远地点 779.256km 778.379km
周期 100.403分钟 100.403分钟
每日圈数 14.342177 14.34214
详细信息
平衡模式:
三轴稳定
覆盖范围:
全球
运营商:
铱星通信公司
运营商所在国:
美国
制造商(研发单位):
阿莱尼亚宇航公司
制造商所在国:
意大利
使用方式:
暂无
卫星简介
铱星(Iridium)是由共66个运作中的通信卫星组成的卫星通信系统。这个系统原本规划77个通信卫星,所以用原子序数为77的铱元素来命名。铱卫星允许人们使用手持型电子设备进行全球性的语音及数据通讯。该卫星仍在工作。
2D轨道图
3D轨道图
轨道高度分析图
轨道倾角分析图
轨道综合分析图
查看轨道综合分析图
交会数据列表
事件ID 空间交会对象 最接近时刻(TCA) 交会距离 交会风险概率(CRP) 交会风险指数(CRI) 操作
CDM_260913-134701-142504-307025
2026-09-13T
13:47:44+0000
0.144 km
中距离
1.008055E-3 极高风险 0.95
CDM_260913-193901-142504-307024
2026-09-13T
19:39:17+0000
2.136 km
极远距离
2.402913E-6 低风险 0.43
与全量物体交会距离演化趋势
与全量物体交会风险概率演化趋势